This is the latest recevied weather packets stored in our database for station/object KD7JB. If no packets are shown the sender has not sent any weather packets the latest 10 day(s).
| Time | Temp. | Humidity | Pressure | Rain* | Wind** | Luminosity | Snow |
|---|---|---|---|---|---|---|---|
| 1777602313 | 13.89° C | 44% | 1180.1 hPa | 0 mm | - | 38 W/m² | - |
| 1777602009 | 13.89° C | 43% | 1180.1 hPa | 0 mm | - | 44 W/m² | - |
| 1777601704 | 13.89° C | 43% | 1180 hPa | 0 mm | - | 49 W/m² | - |
| 1777601400 | 13.89° C | 43% | 1180.1 hPa | 0 mm | - | 55 W/m² | - |
| 1777601096 | 13.89° C | 43% | 1180.1 hPa | 0 mm | - | 63 W/m² | - |
| 1777600794 | 14.44° C | 42% | 1180.1 hPa | 0 mm | - | 72 W/m² | - |
| 1777600489 | 15° C | 40% | 1180.2 hPa | 0 mm | - | 85 W/m² | - |
| 1777600185 | 15° C | 39% | 1180.2 hPa | 0 mm | - | 102 W/m² | - |
| 1777599881 | 15° C | 40% | 1180.3 hPa | 0 mm | - | 115 W/m² | - |
| 1777599577 | 15° C | 40% | 1180.5 hPa | 0 mm | - | 123 W/m² | - |
| 1777599274 | 15° C | 41% | 1180.2 hPa | 0 mm | - | 128 W/m² | - |
| 1777598970 | 15° C | 41% | 1180.5 hPa | 0 mm | - | 129 W/m² | - |
| 1777598668 | 15° C | 42% | 1180.5 hPa | 0 mm | - | 120 W/m² | - |
| 1777598363 | 15° C | 42% | 1180.2 hPa | 0 mm | - | 107 W/m² | - |
| 1777598062 | 15° C | 41% | 1180.6 hPa | 0 mm | - | 109 W/m² | - |
| 1777597761 | 15° C | 44% | 1180.5 hPa | 0 mm | - | 132 W/m² | - |
| 1777597456 | 15° C | 42% | 1180.5 hPa | 0 mm | - | 129 W/m² | - |
| 1777597152 | 15.56° C | 43% | 1180.5 hPa | 0 mm | - | 135 W/m² | - |
| 1777596849 | 15.56° C | 40% | 1180.5 hPa | 0 mm | - | 135 W/m² | - |
| 1777596544 | 15° C | 41% | 1180.5 hPa | 0 mm | - | 168 W/m² | - |
| 1777596242 | 15.56° C | 41% | 1180.7 hPa | 0 mm | - | 164 W/m² | - |
| 1777595939 | 15.56° C | 41% | 1180.7 hPa | 0 mm | - | 185 W/m² | - |
| 1777595639 | 15.56° C | 40% | 1180.7 hPa | 0 mm | - | 174 W/m² | - |
| 1777595335 | 15.56° C | 40% | 1180.7 hPa | 0 mm | - | 239 W/m² | - |
| 1777595031 | 15.56° C | 40% | 1180.7 hPa | 0 mm | - | 274 W/m² | - |
* Rain latest hour (hover to see other rain measurements)
** Current wind speed in m/s (hover to see current wind gust speed)